Wind_Speed
28 28 27 27 26 25 24 24 23 23 22 21 21 22 23 23 22 22 22 22 22 23 23 24 25 26 27 29 32 34 35 37 39 40 42 43 42 40 38 38 38 40 42 44 46 46 45 42 39 37 36 35 36 37 36 35 33 30 30 30 29 29 29 29 29 28 27 25 24
29 29 28 27 27 25 24 23 23 23 23 22 21 21 22 23 23 22 22 23 23 23 23 23 25 26 28 30 33 35 36 38 40 41 42 44 44 43 41 40 41 41 43 45 46 46 45 43 41 38 36 34 34 34 35 34 32 30 30 31 30 30 30 30 30 31 29 26 24
28 28 28 27 27 25 24 23 23 24 23 22 22 21 22 23 23 22 23 23 23 23 22 22 24 26 28 30 33 35 37 38 40 41 41 43 44 44 44 43 44 44 44 45 47 46 45 44 43 40 37 34 32 31 32 33 32 29 29 31 31 30 30 29 31 31 31 28 25
28 28 28 27 27 26 25 23 23 24 23 23 22 22 22 22 22 22 23 23 23 23 23 23 24 25 27 30 33 35 37 37 39 40 40 41 43 44 45 45 46 46 45 45 46 47 47 46 44 42 39 37 34 32 32 32 31 29 28 30 30 30 30 29 29 30 30 30 28
28 28 28 28 28 28 26 24 24 24 24 23 23 23 22 22 22 22 22 23 23 24 24 25 25 25 27 30 33 35 36 36 37 38 39 39 41 43 45 46 47 47 46 46 46 47 48 47 44 42 40 38 34 33 32 32 31 30 29 29 30 30 30 30 30 29 29 29 29
27 28 28 28 29 28 26 24 24 24 24 23 24 24 23 22 22 22 22 23 24 24 25 26 26 26 27 30 32 34 35 35 36 36 36 36 38 40 43 45 47 47 46 46 46 46 47 46 43 40 39 37 33 33 34 33 32 31 29 28 29 30 30 30 29 28 28 27 28
27 27 27 28 28 28 26 24 25 25 25 24 24 25 24 24 22 22 23 23 24 25 26 26 27 27 28 30 32 33 34 34 35 35 34 34 35 37 39 43 45 46 45 44 44 44 44 44 41 39 37 37 36 35 35 35 34 32 30 28 28 29 30 30 29 28 26 27 27
26 27 27 27 28 27 26 25 25 25 25 25 25 26 26 25 24 23 23 23 24 25 26 27 28 29 30 31 32 33 34 35 35 34 33 32 33 34 36 39 43 44 45 43 43 42 42 42 40 37 36 34 35 36 37 37 35 34 32 30 29 29 31 31 30 28 26 26 26
25 26 26 27 28 27 26 25 25 26 26 26 26 27 27 27 25 24 23 23 24 25 27 28 29 30 31 32 33 34 35 36 36 35 34 33 33 33 34 35 39 42 43 43 42 42 41 40 38 37 35 34 36 37 38 38 37 35 33 31 30 30 31 32 32 30 28 27 28
24 25 26 26 26 27 26 25 25 26 27 26 26 27 28 27 26 25 24 24 24 25 26 28 29 31 32 33 34 35 36 36 37 36 35 34 34 34 34 34 37 40 41 41 41 41 40 39 37 36 34 33 35 37 37 38 37 36 34 31 30 31 32 32 32 31 30 29 29
25 25 25 25 26 26 26 26 26 26 26 26 26 27 27 27 26 25 24 24 24 24 25 27 28 30 32 33 34 35 35 35 35 35 35 35 35 35 34 35 37 38 38 39 38 38 38 37 37 36 34 33 35 36 36 37 37 37 35 32 31 31 32 33 32 31 30 30 31
24 25 25 25 26 26 26 26 26 26 26 25 25 26 26 26 26 25 24 24 24 24 25 25 27 29 31 31 33 34 34 33 32 33 34 34 34 33 33 34 36 36 36 36 35 34 35 36 37 37 36 35 35 35 35 36 36 36 35 33 32 31 31 32 33 31 30 30 30
24 24 25 25 25 26 26 26 25 25 25 25 25 25 25 25 26 25 25 25 25 24 24 24 26 28 29 30 31 33 33 32 31 31 32 32 32 31 32 33 34 35 35 35 33 32 33 35 37 39 40 39 37 36 36 36 36 36 36 34 33 31 31 31 32 32 31 31 30
24 24 24 24 25 25 26 26 25 24 24 24 24 24 24 25 25 25 25 25 25 25 24 23 24 26 27 29 30 31 33 32 32 32 32 32 31 30 30 31 33 34 34 34 33 31 31 33 36 39 41 42 41 40 38 37 37 38 37 36 34 33 31 31 31 31 31 31 30
24 24 24 24 25 25 25 25 24 24 24 24 24 24 24 24 24 25 26 25 25 25 24 23 23 24 26 28 29 31 33 33 33 33 34 34 33 32 31 31 32 33 34 34 34 33 32 32 34 35 38 41 44 44 42 40 39 39 38 37 35 33 32 31 31 31 31 31 31
23 24 24 24 24 24 24 24 24 23 23 23 23 23 23 23 24 25 26 25 25 24 24 23 23 24 25 27 29 31 32 33 34 34 35 36 35 34 33 31 31 33 34 35 35 35 35 34 33 31 32 35 40 44 45 44 42 41 40 38 36 34 33 32 32 31 31 31 30
23 23 24 24 24 24 24 24 23 22 22 23 22 22 22 23 23 25 26 25 24 23 23 23 24 24 24 26 28 30 31 32 33 33 34 36 36 36 35 33 32 33 34 35 36 36 35 34 32 30 28 28 33 39 44 45 44 42 41 39 37 35 33 32 33 32 31 30 30
23 24 24 25 25 25 24 24 22 22 22 22 22 22 22 22 23 24 25 25 24 23 23 23 23 24 24 26 28 29 30 30 31 32 33 35 36 36 36 35 34 34 34 35 36 35 34 33 32 30 27 25 26 30 37 42 43 42 41 39 37 35 34 33 33 33 32 31 31
24 24 25 25 25 25 25 24 23 22 22 23 22 21 22 22 22 23 24 24 24 23 23 23 23 24 25 26 27 28 29 30 30 31 33 34 35 36 36 36 35 35 34 35 35 34 33 32 30 29 27 25 23 24 28 33 37 39 39 38 37 36 34 33 33 33 32 31 31
23 24 24 25 25 25 25 24 23 22 22 23 22 21 21 22 22 22 23 23 24 23 23 23 23 24 25 26 26 27 28 29 30 30 31 32 33 34 35 35 35 35 34 34 33 32 31 30 30 29 27 25 23 22 22 25 28 32 34 35 35 35 34 33 32 31 31 31 31
23 23 24 24 24 24 24 24 23 22 22 22 22 22 22 22 22 23 23 24 24 24 23 23 23 24 24 25 26 26 27 27 28 29 30 31 32 33 34 35 35 35 34 33 32 31 30 30 30 29 28 26 24 23 22 22 23 26 28 30 32 33 33 32 31 30 30 31 31
22 22 23 23 23 23 23 23 22 21 21 21 22 22 22 22 22 23 23 23 24 24 24 23 23 24 24 25 25 25 25 26 26 27 28 29 30 32 34 34 35 34 34 33 32 31 30 30 31 31 30 28 26 25 24 23 23 24 25 26 28 29 30 30 30 30 31 31 32
21 20 21 22 22 22 22 22 21 21 21 21 21 22 22 22 22 22 22 23 24 24 24 23 23 23 23 24 24 24 24 24 25 25 26 27 28 30 31 33 34 34 34 34 33 32 31 31 31 32 32 30 29 28 27 26 25 25 25 25 25 27 28 30 31 31 31 31 32
20 19 19 20 20 21 21 21 21 21 21 21 21 22 22 22 22 22 22 22 23 23 23 23 22 22 22 23 23 23 23 23 23 23 24 25 25 27 28 30 32 33 34 33 33 33 32 31 32 32 33 32 31 30 29 28 27 26 26 25 25 26 27 29 30 31 30 30 30
19 19 19 19 20 21 22 22 22 22 22 21 22 22 21 21 21 21 21 22 22 23 22 22 21 21 21 22 22 22 23 22 22 22 22 23 24 25 26 27 29 31 32 32 33 34 34 33 32 32 32 33 32 31 30 29 28 27 26 26 25 25 26 27 28 29 29 29 29
19 19 20 20 21 22 22 23 23 23 22 22 22 21 21 21 21 21 21 21 22 22 22 21 20 21 21 21 22 22 22 22 21 21 22 22 22 23 24 25 27 28 29 30 32 33 34 34 33 32 31 31 31 30 30 29 29 28 27 27 26 26 25 25 26 27 28 28 28
19 20 21 22 22 23 23 23 23 23 22 22 22 21 21 21 21 20 20 21 21 21 21 21 20 20 21 21 21 21 22 21 21 21 21 21 21 22 23 24 25 26 28 30 31 33 34 34 33 32 31 30 29 29 28 28 28 29 29 28 28 27 26 25 25 26 26 27 28
20 22 22 22 23 24 24 24 23 23 22 22 21 21 21 21 20 20 20 20 20 21 21 20 20 20 20 20 21 21 22 21 21 21 21 21 21 21 22 23 24 25 27 29 31 32 34 34 33 33 32 30 28 27 27 27 28 28 29 29 28 27 27 26 26 26 26 27 28
21 21 20 20 22 24 24 23 23 23 22 21 21 21 21 20 20 20 20 20 20 20 20 20 20 19 19 19 20 20 21 21 22 22 21 21 20 20 21 21 22 24 26 29 31 32 33 34 34 33 32 31 29 27 26 26 26 26 26 26 26 25 25 25 25 25 26 27 28
19 19 19 21 21 22 23 23 23 22 22 21 21 21 21 21 20 20 20 20 20 20 20 20 19 19 19 19 19 20 20 21 21 21 21 21 20 20 20 20 20 21 24 26 29 31 32 33 34 34 33 32 30 28 26 25 24 24 23 21 20 20 20 20 21 22 22 23 23
18 18 19 20 20 21 22 22 22 22 21 20 20 21 21 21 20 20 20 20 20 21 21 20 19 18 19 19 19 19 20 20 20 20 20 21 21 20 20 20 19 19 21 23 25 28 30 31 32 33 33 33 31 28 24 21 18 18 17 15 13 13 13 13 14 15 15 16 17
18 18 18 19 19 20 21 22 21 21 21 20 21 21 20 20 21 21 21 20 20 20 20 19 18 18 18 19 19 19 19 19 19 20 20 21 21 21 21 20 19 19 19 19 21 23 25 27 29 30 31 31 28 24 19 15 12 12 13 12 11 11 11 11 11 12 12 13 14
18 17 17 17 18 19 20 20 20 20 21 21 21 20 20 20 20 20 20 20 20 20 19 19 18 18 18 19 19 19 19 19 19 20 20 21 21 21 21 20 18 18 18 18 19 20 21 22 23 25 26 26 21 16 14 14 13 13 14 13 12 12 11 10 10 10 10 11 12
20 18 17 17 17 18 19 20 20 21 21 21 20 20 19 19 19 19 19 19 19 19 19 19 19 19 19 19 19 19 20 20 20 20 20 21 21 21 20 18 16 17 18 18 18 19 19 20 20 21 22 21 17 15 14 15 14 14 14 13 12 11 10 9 8 8 8 9 11
20 20 19 18 17 18 19 20 21 21 21 20 19 19 19 19 19 19 19 19 18 18 18 18 18 18 18 18 17 16 16 17 17 18 19 19 19 19 17 16 15 16 17 18 18 18 18 19 20 20 20 18 17 15 14 15 15 15 14 14 13 11 10 8 7 7 7 8 9
20 21 20 19 18 18 20 21 21 21 20 19 19 18 18 19 19 19 19 18 18 17 17 18 17 16 14 13 11 9 8 8 9 10 11 12 13 14 14 14 14 15 16 17 18 18 18 18 20 21 20 18 16 16 15 15 16 16 15 14 14 13 12 10 9 7 6 6 6
21 21 21 20 18 18 19 21 21 20 20 19 19 18 19 19 19 19 19 18 18 18 17 17 15 13 12 11 10 8 7 7 8 8 8 8 10 12 13 13 14 14 15 16 17 17 18 18 20 21 20 18 17 16 16 16 17 17 17 17 17 16 15 14 13 11 9 7 7
20 20 20 19 18 18 18 19 20 19 19 19 19 19 19 19 19 19 19 19 19 18 16 14 14 14 14 14 13 12 11 10 10 10 9 10 11 11 12 12 13 13 14 15 16 16 17 18 19 20 20 19 19 18 17 18 18 19 20 20 20 20 19 18 17 16 14 13 11
20 20 20 19 18 17 18 18 18 19 19 19 19 19 19 19 19 19 19 18 17 15 15 16 17 17 17 17 16 15 15 14 13 12 12 11 11 11 10 10 10 11 12 13 13 14 15 16 18 20 21 21 20 20 19 19 20 21 22 23 23 24 23 23 22 22 21 19 17
20 19 19 19 18 17 17 17 18 18 19 19 19 18 19 19 18 17 17 15 15 16 18 20 21 21 20 19 18 18 19 18 17 16 15 13 12 11 10 9 8 7 8 9 10 12 13 15 17 19 21 21 21 21 21 21 21 23 25 26 26 26 27 27 27 26 26 25 23
20 20 19 19 19 18 17 17 17 18 18 18 18 18 18 17 16 15 16 17 18 21 23 24 23 22 21 21 20 21 22 22 20 19 17 16 14 13 12 11 9 8 7 8 11 14 16 18 19 21 22 22 23 23 23 23 23 24 25 27 27 28 28 29 29 29 29 29 28
Wind_Direction
189 189 190 191 191 192 192 193 193 192 191 191 193 196 197 198 200 200 200 198 198 199 201 204 206 205 204 202 199 197 195 193 191 190 189 188 188 187 185 182 181 182 183 186 190 193 197 199 200 201 204 207 211 213 215 216 214 212 207 200 195 192 191 189 189 189 192 195 194
189 190 191 191 192 192 192 192 191 190 191 194 196 197 197 198 199 199 199 199 200 201 201 202 203 204 202 201 199 196 194 192 190 189 188 188 188 188 186 184 184 186 187 189 191 194 197 199 201 203 205 208 210 211 212 212 211 209 205 199 194 191 190 190 190 192 194 197 195
190 191 192 194 193 192 191 191 191 191 193 196 197 197 196 198 198 198 198 198 199 200 199 198 200 201 200 199 197 194 192 191 189 188 187 187 188 188 187 187 187 188 190 191 192 194 196 199 201 204 206 208 207 207 207 209 209 207 203 198 194 191 190 192 194 196 199 203 202
190 191 191 193 194 194 193 191 191 192 193 195 197 197 196 197 197 198 198 197 197 197 196 196 196 196 196 195 193 191 190 189 187 186 186 186 186 187 188 188 188 189 191 192 193 195 196 198 201 204 206 208 208 206 206 207 207 207 203 198 195 193 192 193 195 199 203 209 211
190 191 191 192 194 195 195 193 193 193 194 195 196 196 196 197 197 196 196 195 194 194 195 195 194 193 193 192 190 188 188 187 186 185 185 185 185 186 187 189 190 191 192 193 194 195 196 197 200 203 206 208 208 207 206 207 206 205 203 198 196 194 194 194 196 199 204 210 214
190 190 191 193 194 195 196 194 194 194 194 195 195 195 195 194 194 193 193 194 194 194 194 195 194 192 191 190 188 187 186 185 184 184 184 185 185 186 187 190 191 192 193 194 195 196 197 197 199 202 204 206 207 207 207 207 206 204 201 198 195 195 194 195 196 199 204 209 213
189 189 191 193 194 193 193 194 194 194 195 197 197 195 194 193 192 192 193 194 194 193 193 193 193 192 190 189 188 187 187 185 184 184 184 185 187 188 188 190 192 193 194 195 196 196 197 198 199 201 202 204 205 206 206 206 205 203 200 197 195 194 194 195 196 198 202 206 208
189 189 190 191 191 191 191 193 194 195 195 196 196 195 194 193 192 192 193 193 192 192 192 193 193 193 192 190 188 188 187 186 185 185 185 186 187 188 189 190 192 194 196 197 197 197 197 198 199 200 201 202 202 203 204 205 204 203 200 198 196 194 194 196 197 199 201 203 204
189 189 189 189 190 190 191 193 195 196 197 197 196 195 193 192 191 192 192 192 191 192 193 193 194 194 193 191 190 189 188 188 187 187 187 188 188 189 190 191 192 194 196 197 197 197 197 196 197 198 200 201 201 202 203 203 203 203 201 199 196 194 194 195 197 199 201 203 203
186 187 187 187 188 189 191 193 196 196 196 196 195 194 192 191 191 192 193 193 192 192 192 192 193 194 193 193 191 190 190 189 188 188 188 188 189 190 191 192 192 192 193 195 195 195 194 193 194 196 198 200 201 202 202 202 202 201 201 199 197 194 193 193 195 198 201 204 204
184 185 185 185 186 188 190 193 195 196 196 196 194 192 192 192 192 193 194 194 193 190 190 190 191 192 192 193 192 191 191 190 190 190 189 189 189 190 191 191 191 191 191 191 192 192 191 191 192 195 198 200 201 201 201 201 201 200 200 199 197 195 193 193 194 197 201 205 205
183 183 184 184 185 186 189 192 194 195 194 194 193 192 192 193 194 194 195 195 193 190 189 189 189 190 190 191 191 191 191 191 192 191 190 190 190 190 190 190 190 190 190 190 190 189 189 190 192 196 199 201 201 201 201 200 200 200 199 199 198 196 195 194 195 197 201 206 207
182 182 182 182 183 185 188 191 193 193 192 192 192 192 193 194 195 196 196 196 195 192 190 190 190 189 189 189 190 190 190 191 193 193 192 192 192 191 190 190 190 191 191 191 191 189 188 190 193 197 200 202 202 202 201 199 199 198 198 198 198 198 197 196 196 198 202 205 207
181 181 181 181 182 184 187 190 192 192 191 191 191 192 193 195 196 197 198 198 197 195 193 192 192 191 190 189 188 189 190 192 194 196 197 197 197 195 193 193 192 192 193 193 194 194 193 192 195 198 200 202 201 200 199 198 197 198 198 198 198 198 198 198 198 199 201 203 206
179 180 181 181 182 185 187 189 191 192 191 190 191 191 192 194 197 198 199 199 199 198 197 196 194 193 192 191 190 191 192 194 195 197 199 201 201 200 198 196 195 194 195 196 199 201 201 199 198 199 199 199 198 197 197 196 197 198 199 199 198 198 198 198 198 199 200 201 203
179 180 181 182 183 185 188 190 192 192 190 189 189 189 190 192 196 198 199 199 199 199 199 198 197 196 195 194 193 194 194 195 196 198 199 201 202 202 200 198 197 196 197 198 201 205 207 206 204 202 200 197 195 194 193 195 196 198 198 199 198 198 198 198 198 199 200 200 201
181 181 182 184 185 187 188 190 190 189 188 187 186 186 188 190 194 196 198 198 198 198 199 199 199 198 197 197 197 197 196 197 198 199 200 201 202 202 201 200 199 198 199 200 202 205 207 207 206 204 201 198 193 190 190 192 194 197 198 199 200 200 199 198 198 199 200 201 202
184 185 185 186 187 187 188 188 188 188 187 185 185 185 186 189 191 193 196 197 197 197 198 199 200 199 199 198 198 198 198 198 199 200 201 202 203 203 202 202 202 202 201 202 203 204 205 205 203 202 200 199 194 190 188 189 192 195 197 198 200 200 198 197 198 199 201 203 204
186 187 187 187 188 188 188 187 187 187 187 187 186 186 187 189 191 193 194 195 197 197 198 198 199 200 200 199 199 199 200 200 200 201 203 204 204 204 204 204 205 204 203 203 203 203 203 202 200 199 198 198 196 192 189 187 189 191 193 195 196 196 196 196 197 200 203 205 207
187 187 188 188 188 188 188 187 187 187 188 188 188 188 189 191 194 195 195 195 197 198 198 198 198 198 198 198 199 200 201 202 202 203 204 205 205 204 204 204 204 204 205 205 204 203 202 201 199 198 197 198 198 196 192 188 188 189 190 192 193 194 194 195 198 201 204 207 210
190 189 187 187 185 185 186 187 187 188 188 188 189 190 192 194 196 197 198 198 198 198 198 197 197 196 196 197 198 200 201 203 204 204 205 205 205 205 205 204 204 204 205 205 204 203 202 200 200 199 199 200 200 199 197 193 191 190 190 191 192 193 194 196 199 203 207 210 212
191 189 186 185 184 184 184 185 186 187 189 190 191 192 193 195 196 198 199 200 199 198 197 197 197 197 197 198 199 200 202 204 205 206 206 206 206 206 206 205 204 204 204 204 204 203 202 202 202 202 202 203 203 204 203 201 199 197 196 196 196 196 198 201 204 208 211 214 216
190 185 183 183 184 184 184 185 186 188 190 191 192 193 194 195 196 197 198 198 198 197 197 198 198 199 199 200 201 202 203 204 205 206 206 206 205 206 206 205 205 204 204 205 204 204 203 204 205 205 206 206 207 208 208 207 206 205 204 204 203 203 204 208 211 214 217 218 220
187 183 181 183 184 186 187 188 190 192 193 194 194 194 194 194 194 195 195 196 196 196 196 197 199 201 202 204 204 204 204 204 204 205 205 206 206 205 205 205 205 205 206 206 205 204 204 204 205 207 208 209 210 211 212 212 211 210 210 209 209 208 209 212 215 218 220 222 223
186 185 185 188 190 191 192 192 192 193 194 195 194 194 193 193 193 192 192 193 194 195 196 197 199 201 204 205 206 205 204 203 203 203 204 205 205 205 204 204 204 205 206 206 206 206 205 205 206 207 208 210 211 213 214 215 215 215 215 214 213 213 212 214 216 219 221 223 224
188 189 191 193 195 195 195 193 192 193 193 193 193 192 191 191 190 190 190 191 193 194 196 197 199 201 203 204 204 204 203 202 202 202 202 203 203 203 203 202 203 204 205 206 206 206 206 207 207 207 207 208 210 212 214 216 218 219 219 219 218 216 215 215 216 218 221 223 225
192 194 197 198 198 197 195 193 192 191 190 190 189 189 189 189 188 188 188 189 191 193 195 197 199 201 202 203 202 201 201 201 201 201 201 201 201 201 201 201 201 203 204 206 206 207 207 208 208 208 207 207 208 210 212 214 217 219 220 220 220 219 218 217 218 219 222 224 226
196 200 201 199 197 194 193 191 189 187 186 186 186 187 187 187 187 187 187 188 190 191 193 195 198 200 200 200 200 200 200 201 201 201 201 201 200 200 200 200 201 203 205 207 207 208 209 210 210 210 209 208 208 209 210 212 213 215 216 216 217 217 218 219 221 223 224 226 228
199 200 197 191 189 188 188 186 186 185 184 184 185 186 186 186 186 187 187 188 189 190 191 193 195 197 197 197 198 199 200 200 201 201 200 200 200 200 200 200 201 203 206 208 209 210 211 211 212 212 212 211 210 209 210 210 211 212 213 214 215 217 219 221 224 225 227 227 227
194 191 186 184 183 183 183 182 182 183 183 184 185 186 186 186 186 187 188 188 190 191 192 193 193 194 195 197 198 198 199 200 200 200 200 200 200 201 201 201 201 204 207 209 211 211 212 213 214 215 215 215 213 212 212 213 214 216 217 218 219 219 219 220 222 223 223 222 221
189 185 182 181 181 180 181 181 181 183 184 186 187 187 187 186 187 188 190 190 191 192 193 193 193 194 196 198 198 198 198 199 199 200 201 201 203 204 204 204 205 206 208 210 211 213 214 214 216 217 218 218 217 216 215 215 214 212 210 208 205 202 198 197 198 201 204 206 207
192 186 182 182 182 182 182 182 183 185 186 189 189 189 189 188 188 190 192 192 191 191 190 190 190 192 195 198 198 198 199 198 199 200 202 204 206 207 208 208 209 210 210 210 211 213 214 215 217 218 219 219 215 212 208 197 180 169 168 168 168 168 170 172 178 183 188 192 196
198 193 188 186 186 185 185 186 187 188 189 190 190 189 188 188 188 189 190 190 189 187 187 188 189 192 194 196 198 199 200 201 202 203 204 207 208 210 210 209 209 209 210 210 211 212 214 215 217 217 215 208 198 185 173 166 152 144 142 143 147 151 157 163 171 177 184 193 199
203 201 197 194 191 190 190 190 191 191 190 189 188 187 187 186 186 187 187 186 185 186 188 190 192 195 198 201 201 202 204 205 206 207 208 209 210 210 208 203 202 204 207 208 209 211 212 213 214 211 204 193 180 166 155 150 142 137 133 132 135 139 145 152 161 172 184 195 203
202 204 204 201 197 193 192 192 192 191 189 187 186 186 185 185 185 185 184 184 184 186 189 193 197 199 201 202 202 202 203 205 207 209 211 212 211 206 199 194 196 200 203 205 207 209 210 211 211 206 196 183 170 158 149 142 135 132 130 127 128 129 131 135 145 160 177 190 199
200 202 204 204 199 193 190 190 191 190 188 186 185 184 184 184 185 185 184 184 184 186 189 193 195 193 189 182 177 173 173 177 185 193 200 202 198 190 183 182 188 194 199 203 205 206 207 208 208 204 194 180 166 156 147 139 132 128 125 122 120 118 116 115 118 130 147 161 175
199 200 201 202 197 192 188 188 188 188 187 186 184 182 182 183 183 184 185 184 184 186 187 186 179 166 153 148 145 140 135 137 139 142 146 151 156 160 164 170 180 188 195 199 202 203 204 205 205 202 193 178 165 155 145 135 128 123 118 111 108 105 104 103 102 101 103 111 132
197 198 198 198 195 191 188 186 186 186 185 184 183 182 182 182 181 183 185 187 186 184 179 167 150 139 136 135 130 126 124 127 128 128 127 126 132 141 151 161 174 184 191 195 198 200 201 202 203 201 194 180 167 156 144 133 125 118 112 107 102 99 96 95 93 90 88 91 107
196 196 196 196 194 191 188 186 185 185 184 183 182 182 181 181 181 183 186 186 181 172 157 141 133 131 131 128 123 117 113 116 119 121 120 117 119 129 141 152 165 178 186 190 194 197 198 198 200 198 192 181 169 156 145 134 124 116 109 105 100 96 93 91 89 87 87 89 96
196 195 195 195 194 192 189 187 185 185 184 183 182 181 180 180 179 179 176 170 158 145 136 128 125 124 125 122 118 111 105 105 107 110 111 110 112 119 126 131 142 158 172 179 183 186 187 189 192 192 187 177 167 156 145 136 127 115 107 102 99 95 91 89 88 86 85 86 87
196 195 195 195 194 192 189 187 185 185 184 183 181 180 178 174 169 161 152 143 136 131 127 122 121 120 120 118 115 108 101 96 96 98 101 104 105 107 109 108 112 120 134 148 158 164 169 175 181 183 180 172 164 155 147 139 129 118 108 102 99 96 91 88 86 85 83 82 82
Height
680 682 683 685 687 689 690 691 693 694 695 697 698 700 701 703 704 706 707 708 709 710 712 714 715 716 717 718 719 721 722 724 725 726 728 730 731 733 735 737 739 742 745 749 752 755 758 760 762 764 766 768 770 771 772 774 776 778 779 778 779 780 781 783 785 787 790 793 794
678 680 682 684 686 687 689 690 691 693 694 696 697 699 700 702 703 704 705 707 708 710 711 712 713 714 715 716 718 719 720 722 723 725 726 728 730 731 734 736 738 741 744 747 750 753 755 757 760 763 765 766 768 769 771 772 775 776 777 776 777 778 780 782 783 786 789 792 793
677 679 681 683 685 686 688 689 690 691 693 695 697 698 700 701 702 703 704 705 707 708 710 711 712 713 714 715 716 718 719 720 721 723 725 726 728 730 732 734 737 740 743 746 748 750 752 755 758 760 762 764 765 767 769 770 772 774 775 775 775 776 778 780 782 785 788 790 791
676 678 680 681 683 685 686 687 689 690 692 694 696 697 699 700 701 702 703 704 706 707 708 709 710 711 713 714 715 716 718 719 720 721 723 725 726 728 730 733 736 739 741 744 745 747 750 753 756 758 760 761 763 765 766 768 770 771 773 774 774 775 776 778 781 784 786 788 789
675 676 678 679 681 683 685 686 687 689 691 693 695 696 698 699 700 701 702 703 705 705 707 708 709 710 711 713 714 715 716 718 719 720 722 724 725 727 729 732 734 737 739 741 743 745 748 751 754 756 758 759 761 762 764 765 767 769 771 772 773 774 775 777 780 782 784 786 787
673 675 676 678 680 682 684 685 686 688 690 692 694 695 696 698 699 700 701 702 703 705 705 707 708 709 710 712 713 714 716 717 719 720 721 723 725 727 729 731 733 735 738 740 742 744 746 749 751 753 755 757 759 760 761 764 765 768 769 770 771 772 774 775 778 780 782 784 785
672 673 675 677 679 681 683 684 685 687 690 691 693 694 695 696 697 699 700 701 702 704 705 705 707 708 709 711 712 713 715 716 718 719 721 723 725 726 728 730 732 734 737 739 741 743 745 747 749 751 753 755 756 758 760 762 764 766 767 768 769 770 772 774 775 778 780 782 783
671 672 674 676 678 680 681 683 685 687 689 690 691 692 693 695 696 697 699 700 701 702 703 704 705 706 708 709 711 712 714 715 717 719 720 722 724 725 726 729 731 733 735 738 740 741 743 745 747 749 750 752 754 755 757 760 762 763 765 766 767 768 770 771 774 776 778 780 781
670 672 673 675 676 678 680 682 684 686 687 689 690 691 692 694 695 696 698 699 700 701 702 703 704 705 706 708 710 711 713 714 716 718 719 721 722 724 725 728 730 732 734 736 738 740 741 743 745 746 748 750 751 753 755 757 759 761 762 764 765 766 767 769 771 774 776 778 780
669 670 672 674 675 677 679 681 683 685 686 688 689 690 691 693 694 695 697 698 699 700 701 702 703 704 705 707 709 710 712 713 715 716 718 720 720 722 724 726 728 730 732 735 736 738 739 740 742 745 746 748 749 751 753 754 756 758 760 762 763 764 765 767 769 771 774 776 777
668 669 671 673 675 676 679 680 682 684 685 687 688 689 690 692 693 695 696 698 699 700 700 701 702 703 705 706 707 709 710 712 714 716 717 718 719 721 723 725 727 729 730 732 734 735 737 738 740 742 745 746 748 750 751 752 754 755 758 760 761 763 764 765 766 769 771 774 775
667 668 670 672 674 675 678 680 681 683 684 685 687 688 690 691 692 694 695 697 698 699 700 700 701 702 704 705 706 708 710 712 714 715 716 717 719 720 722 724 725 727 729 730 732 733 735 736 738 740 743 745 746 748 749 750 751 753 755 758 760 761 762 762 764 766 769 771 773
666 668 670 671 673 675 677 679 680 682 683 685 685 687 689 690 692 693 695 696 697 698 699 700 700 702 703 704 706 707 709 711 713 715 716 717 719 720 722 723 725 726 728 729 730 732 733 734 736 738 740 742 744 745 747 748 750 751 753 755 758 759 760 761 762 764 767 769 771
665 667 669 670 672 674 676 678 680 681 682 683 685 686 688 689 691 692 694 695 696 697 698 699 700 701 702 704 705 706 708 710 712 714 716 717 718 720 721 722 724 725 726 728 729 730 732 733 734 735 737 738 740 742 744 745 747 749 751 753 755 756 758 759 760 762 765 767 769
665 666 668 670 671 673 675 677 678 680 681 682 684 685 687 688 690 691 693 694 695 696 697 699 700 701 702 703 705 706 707 709 710 712 714 716 718 719 720 721 723 724 725 727 728 730 731 732 733 733 734 735 736 738 741 743 745 746 749 750 752 754 755 756 759 761 763 765 766
664 665 667 669 671 673 674 676 677 679 680 681 683 684 685 687 689 690 692 693 694 695 696 698 699 700 701 703 704 705 707 708 709 711 712 714 716 718 719 720 722 723 724 726 727 729 730 730 731 732 733 733 734 735 737 739 742 744 746 748 749 751 752 754 756 759 761 762 764
663 665 666 668 670 672 674 675 677 678 679 680 682 683 685 686 688 690 691 692 693 695 695 697 698 699 701 702 704 705 706 707 708 710 711 712 714 716 717 719 720 721 723 724 726 727 728 729 730 731 732 733 733 733 734 735 738 741 743 745 747 749 750 752 754 756 758 760 762
663 664 666 668 669 671 673 674 676 677 678 680 681 683 684 685 687 689 690 691 692 694 695 696 697 698 700 701 702 704 705 706 707 708 710 711 712 714 715 717 718 720 721 723 724 725 726 727 728 730 731 732 733 733 733 734 735 738 740 742 745 747 749 750 752 754 756 758 759
662 664 665 667 668 670 672 673 675 676 678 679 680 682 684 685 686 688 689 690 692 693 694 695 696 698 699 700 701 702 704 705 706 707 708 710 711 712 714 715 717 718 720 721 722 723 725 726 727 729 730 732 733 734 734 734 735 736 738 740 742 745 746 748 750 751 754 755 757
661 663 664 666 667 669 671 673 674 675 677 679 680 681 683 684 686 687 689 690 691 692 693 695 695 697 698 699 700 701 703 704 705 706 707 709 710 711 712 713 715 717 718 720 721 722 724 725 726 728 729 731 732 733 734 734 735 736 737 739 740 742 744 746 748 750 752 754 755
661 662 664 665 667 668 670 672 674 675 677 678 680 681 682 684 685 686 688 689 690 691 693 694 695 696 697 698 699 700 702 703 704 705 706 707 709 710 711 712 714 715 717 719 720 721 723 724 725 727 728 730 731 732 734 734 735 736 737 738 739 740 742 744 746 749 750 752 754
660 662 663 665 666 668 670 671 673 675 676 678 679 680 682 683 684 685 687 688 690 691 692 693 694 695 696 697 699 700 701 702 703 705 705 706 708 709 710 711 713 714 715 717 719 720 721 723 724 726 727 729 730 731 733 734 735 736 737 738 739 740 741 743 745 747 749 750 752
660 662 663 665 666 668 669 671 673 675 676 677 679 680 681 682 684 685 686 688 689 690 691 692 693 694 695 697 698 699 700 702 703 704 705 706 707 708 709 710 711 713 714 716 717 719 720 722 723 725 726 727 729 730 731 733 734 735 736 737 738 739 740 742 744 746 748 749 750
660 661 663 664 666 668 669 671 672 674 675 677 678 679 680 682 683 685 686 687 688 689 690 692 693 694 695 696 698 699 700 701 702 703 704 705 706 707 708 709 710 712 713 714 716 717 719 720 722 724 725 726 727 729 730 731 732 734 735 736 737 738 739 741 743 745 746 747 749
660 661 663 664 666 667 669 670 672 673 675 676 677 679 680 681 682 684 685 686 688 689 690 691 692 694 695 696 697 698 699 700 701 702 704 705 705 706 708 709 710 711 712 713 715 716 717 719 720 722 723 725 726 728 729 730 731 732 734 735 736 737 738 740 741 743 744 745 747
660 661 663 664 665 667 668 670 671 672 674 675 676 678 679 680 682 683 684 685 687 688 690 691 692 693 694 695 696 698 699 700 701 702 703 704 705 706 707 708 709 710 711 712 714 715 716 718 719 721 722 724 725 727 728 729 730 731 733 734 735 736 737 738 740 741 742 744 745
660 661 662 664 665 666 667 669 670 671 673 674 676 677 679 680 681 682 684 685 686 688 689 690 692 693 694 695 696 697 698 699 700 701 702 703 704 705 706 707 708 709 710 711 713 714 715 717 718 720 721 723 724 725 727 728 729 730 732 733 734 735 736 737 738 740 741 742 744
660 661 662 663 664 665 666 668 669 670 672 673 675 676 678 679 681 682 683 685 686 687 689 690 691 692 693 694 695 696 697 698 700 700 702 703 704 705 705 706 707 708 709 710 712 713 715 716 718 719 720 722 723 725 726 727 728 729 730 731 733 734 735 735 737 738 740 741 743
659 660 661 662 663 664 665 667 668 670 671 673 674 676 677 679 680 681 683 684 685 687 688 689 690 691 693 694 695 695 697 698 699 700 701 702 703 704 705 706 707 708 709 710 711 713 714 715 717 718 719 721 722 724 725 726 727 728 729 730 731 732 733 734 736 737 739 740 741
659 660 660 661 662 663 664 665 667 669 670 672 674 675 677 678 680 681 682 683 685 686 687 688 690 691 692 693 694 695 696 697 698 699 700 701 703 704 705 706 706 707 708 709 710 712 713 715 716 717 719 720 721 723 724 725 726 727 728 730 731 732 733 734 735 737 738 739 740
658 659 660 660 661 663 664 665 667 668 670 672 673 675 676 677 679 680 681 683 684 685 686 688 689 690 691 692 693 695 695 697 698 699 700 701 702 703 704 705 706 707 708 709 710 711 713 714 715 717 718 720 721 722 724 725 726 727 728 729 730 731 732 733 734 735 737 738 739
658 659 659 660 661 662 664 665 666 668 670 671 673 674 675 677 678 679 680 682 683 684 686 687 688 689 690 692 693 694 695 696 697 698 699 700 701 703 704 705 706 707 708 709 710 711 713 714 715 717 718 720 721 722 724 725 725 725 726 727 729 730 730 731 733 734 735 736 738
657 658 659 660 661 662 663 665 666 668 670 671 672 673 675 676 677 679 680 681 682 684 685 686 688 689 690 691 692 693 695 695 696 698 699 700 701 702 703 705 706 706 707 709 710 711 713 714 715 717 719 720 721 721 721 722 723 724 725 726 728 729 730 731 732 733 735 735 736
657 658 659 660 661 662 663 665 666 668 669 670 671 673 674 675 677 678 680 681 682 683 684 686 687 688 689 690 691 693 694 695 696 697 698 699 700 701 703 704 705 705 706 708 710 711 712 714 715 717 718 718 719 719 720 721 723 724 725 726 727 729 730 731 732 733 734 735 735
656 658 659 660 660 661 663 664 666 667 669 670 671 672 674 675 676 678 679 680 681 683 684 685 687 688 689 690 692 693 694 695 696 697 698 699 700 701 702 703 703 704 706 707 709 710 712 714 715 716 716 717 718 719 720 721 723 724 725 726 727 728 730 730 731 732 733 734 734
655 657 658 659 660 661 662 664 665 667 668 669 670 672 673 675 676 677 679 680 681 683 684 685 687 688 690 690 692 693 694 695 696 697 698 699 700 701 701 702 703 704 705 707 708 710 711 713 714 715 715 716 717 718 720 721 722 724 725 726 727 728 729 730 731 732 733 733 734
655 656 657 659 660 661 662 663 665 666 668 669 670 672 673 675 676 677 679 680 681 682 684 685 687 688 689 689 690 691 692 694 695 695 697 698 699 700 700 701 703 704 705 706 708 709 710 712 713 713 714 715 716 718 719 721 722 724 725 726 728 729 730 730 731 732 733 734 734
654 655 657 658 660 661 662 663 665 666 668 669 670 672 673 675 676 677 678 680 681 682 684 685 686 686 687 689 690 692 693 694 695 696 697 698 699 700 701 702 703 704 705 706 707 709 710 711 712 712 713 714 716 717 719 721 722 724 725 727 728 730 730 731 732 733 734 735 735
653 654 656 657 659 660 662 663 665 666 668 669 670 672 673 675 676 677 678 680 681 682 683 684 685 686 687 689 690 692 693 695 695 696 697 699 700 700 701 702 703 704 705 706 707 708 709 710 711 712 713 714 715 717 719 721 723 725 726 727 729 730 732 732 733 735 735 736 737
652 654 655 657 658 660 661 663 665 666 668 669 671 672 673 675 676 677 679 680 680 681 682 683 685 686 688 689 690 692 694 695 696 697 698 699 700 700 701 702 703 704 705 706 707 708 709 710 710 711 712 713 715 716 718 720 723 725 727 729 730 731 733 734 735 736 737 738 738
651 653 655 656 658 660 661 663 665 666 668 669 671 672 674 675 676 677 678 679 680 681 682 684 685 687 688 689 691 693 694 695 697 698 699 700 700 701 701 702 703 704 705 706 707 708 709 709 710 710 711 712 714 715 717 720 722 725 728 730 731 732 734 735 736 737 738 739 740